When you browse on this site, cookies collect data to enhance your experience and personalize the content and advertising you see.
Visit our Privacy Policy to learn more. By continuing to use the site, you agree to this use of cookies and data.
  • En España
  • Lista de países
  • Para 7 días
  • Temperatura del agua
  • El tiempo en el mapa
  • Informadores
  • user-avatar
    Iniciar sesión

    Tiempo cada hora Porto Alegre

    Hoy, 22 Febrero, Sábado

    Tiempo Temperatura Precipitaciones Viento Presión Humedad
    00:00 +19°C° 0 mm 4 mps 761 mmHg 55%
    01:00 +18°C° 0 mm 4 mps 761 mmHg 57%
    02:00 +17°C° 0 mm 4 mps 761 mmHg 59%
    03:00 +16°C° 0 mm 3 mps 761 mmHg 61%
    04:00 +16°C° 0 mm 3 mps 761 mmHg 63%
    05:00 +14°C° 0 mm 3 mps 761 mmHg 66%
    06:00 +14°C° 0 mm 2 mps 761 mmHg 69%
    07:00 +16°C° 0 mm 2 mps 762 mmHg 64%
    08:00 +17°C° 0 mm 2 mps 762 mmHg 60%
    09:00 +18°C° 0 mm 2 mps 762 mmHg 55%
    10:00 +20°C° 0 mm 2 mps 762 mmHg 52%
    11:00 +23°C° 0 mm 2 mps 762 mmHg 48%
    12:00 +25°C° 0 mm 1 mps 762 mmHg 44%
    13:00 +25°C° 0 mm 2 mps 761 mmHg 44%
    14:00 +25°C° 0 mm 2 mps 761 mmHg 44%
    15:00 +26°C° 0 mm 3 mps 761 mmHg 43%
    16:00 +25°C° 0 mm 3 mps 761 mmHg 46%
    17:00 +25°C° 0 mm 3 mps 761 mmHg 49%
    18:00 +23°C° 0 mm 4 mps 761 mmHg 53%
    19:00 +22°C° 0 mm 4 mps 761 mmHg 58%
    20:00 +21°C° 0 mm 3 mps 761 mmHg 64%
    21:00 +20°C° 0 mm 3 mps 762 mmHg 70%
    22:00 +19°C° 0 mm 2 mps 762 mmHg 71%
    23:00 +19°C° 0 mm 2 mps 762 mmHg 71%

    Mañana, 23 Febrero, Domingo

    Tiempo Temperatura Precipitaciones Viento Presión Humedad
    00:00 +19°C° 0 mm 2 mps 762 mmHg 72%
    01:00 +19°C° 0 mm 1 mps 762 mmHg 73%
    02:00 +19°C° 0 mm 1 mps 761 mmHg 74%
    03:00 +19°C° 0 mm 1 mps 761 mmHg 76%
    04:00 +18°C° 0 mm 1 mps 761 mmHg 77%
    05:00 +16°C° 0 mm 0 mps 761 mmHg 79%
    06:00 +16°C° 0 mm 0 mps 762 mmHg 80%
    07:00 +18°C° 0 mm 0 mps 762 mmHg 74%
    08:00 +22°C° 0 mm 1 mps 762 mmHg 67%
    09:00 +23°C° 0 mm 1 mps 762 mmHg 60%
    10:00 +25°C° 0 mm 1 mps 762 mmHg 55%
    11:00 +26°C° 0 mm 2 mps 761 mmHg 49%
    12:00 +28°C° 0 mm 2 mps 761 mmHg 43%
    13:00 +28°C° 0 mm 3 mps 760 mmHg 44%
    14:00 +28°C° 0 mm 4 mps 760 mmHg 44%
    15:00 +28°C° 0 mm 5 mps 759 mmHg 44%
    16:00 +27°C° 0 mm 5 mps 759 mmHg 47%
    17:00 +27°C° 0 mm 5 mps 759 mmHg 50%
    18:00 +26°C° 0 mm 5 mps 758 mmHg 52%
    19:00 +25°C° 0 mm 5 mps 758 mmHg 57%
    20:00 +22°C° 0 mm 5 mps 759 mmHg 61%
    21:00 +21°C° 0 mm 4 mps 759 mmHg 66%
    22:00 +21°C° 0 mm 4 mps 759 mmHg 68%
    23:00 +20°C° 0 mm 3 mps 759 mmHg 70%

    Pasado mañana, 24 Febrero, Lunes

    Tiempo Temperatura Precipitaciones Viento Presión Humedad
    00:00 +20°C° 0 mm 3 mps 759 mmHg 73%
    01:00 +20°C° 0 mm 2 mps 758 mmHg 74%
    02:00 +19°C° 0 mm 2 mps 757 mmHg 76%
    03:00 +20°C° 0 mm 1 mps 757 mmHg 78%
    04:00 +20°C° 0 mm 1 mps 757 mmHg 78%
    05:00 +19°C° 0 mm 1 mps 757 mmHg 78%
    06:00 +19°C° 0 mm 1 mps 757 mmHg 78%
    07:00 +21°C° 0 mm 1 mps 757 mmHg 70%
    08:00 +23°C° 0 mm 1 mps 757 mmHg 62%
    09:00 +25°C° 0 mm 1 mps 757 mmHg 54%
    10:00 +28°C° 0 mm 1 mps 757 mmHg 49%
    11:00 +30°C° 0 mm 1 mps 756 mmHg 44%
    12:00 +30°C° 0 mm 0 mps 756 mmHg 38%
    13:00 +33°C° 0 mm 1 mps 755 mmHg 38%
    14:00 +33°C° 0 mm 1 mps 754 mmHg 37%
    15:00 +35°C° 0 mm 2 mps 754 mmHg 36%
    16:00 +32°C° 0 mm 2 mps 753 mmHg 41%
    17:00 +31°C° 0 mm 3 mps 753 mmHg 47%
    18:00 +30°C° 0 mm 3 mps 753 mmHg 52%
    19:00 +29°C° 0 mm 3 mps 753 mmHg 56%
    20:00 +27°C° 0 mm 3 mps 753 mmHg 60%
    21:00 +26°C° 0 mm 3 mps 754 mmHg 64%
    22:00 +26°C° 0 mm 2 mps 754 mmHg 67%
    23:00 +25°C° 0 mm 2 mps 754 mmHg 69%

    25 Febrero, Martes

    Tiempo Temperatura Precipitaciones Viento Presión Humedad
    00:00 +25°C° 0 mm 2 mps 754 mmHg 72%
    01:00 +24°C° 0 mm 1 mps 754 mmHg 72%
    02:00 +24°C° 0 mm 1 mps 753 mmHg 71%
    03:00 +24°C° 0 mm 1 mps 753 mmHg 71%
    04:00 +24°C° 0 mm 1 mps 753 mmHg 70%
    05:00 +24°C° 0 mm 2 mps 753 mmHg 70%
    06:00 +24°C° 0 mm 2 mps 754 mmHg 69%
    07:00 +25°C° 0 mm 2 mps 754 mmHg 65%
    08:00 +27°C° 0 mm 2 mps 754 mmHg 61%
    09:00 +28°C° 0 mm 3 mps 754 mmHg 57%
    10:00 +30°C° 0 mm 3 mps 754 mmHg 52%
    11:00 +34°C° 0 mm 3 mps 753 mmHg 46%
    12:00 +36°C° 0 mm 3 mps 753 mmHg 41%
    13:00 +36°C° 0 mm 2 mps 753 mmHg 39%
    14:00 +37°C° 0 mm 2 mps 752 mmHg 37%
    15:00 +37°C° 0 mm 2 mps 751 mmHg 35%
    16:00 +35°C° 0.3 mm 2 mps 751 mmHg 44%
    17:00 +33°C° 0.3 mm 3 mps 751 mmHg 54%
    18:00 +29°C° 0.3 mm 3 mps 751 mmHg 63%
    19:00 +28°C° 1 mm 3 mps 751 mmHg 69%
    20:00 +27°C° 1 mm 2 mps 751 mmHg 76%
    21:00 +26°C° 1 mm 2 mps 752 mmHg 82%
    22:00 +26°C° 0.1 mm 2 mps 752 mmHg 82%
    23:00 +26°C° 0.1 mm 2 mps 752 mmHg 82%

    26 Febrero, Miércoles

    Tiempo Temperatura Precipitaciones Viento Presión Humedad
    00:00 +26°C° 0.1 mm 2 mps 752 mmHg 82%
    01:00 +25°C° 0.1 mm 2 mps 752 mmHg 83%
    02:00 +25°C° 0.1 mm 3 mps 752 mmHg 85%
    03:00 +23°C° 0.1 mm 4 mps 751 mmHg 87%
    04:00 +23°C° 0.4 mm 4 mps 752 mmHg 86%
    05:00 +22°C° 0.4 mm 4 mps 752 mmHg 85%
    06:00 +22°C° 0.4 mm 4 mps 752 mmHg 84%
    07:00 +24°C° 0.1 mm 3 mps 753 mmHg 79%
    08:00 +25°C° 0.1 mm 3 mps 753 mmHg 74%
    09:00 +26°C° 0.1 mm 3 mps 754 mmHg 68%
    10:00 +27°C° 0 mm 3 mps 754 mmHg 62%
    11:00 +28°C° 0 mm 4 mps 754 mmHg 56%
    12:00 +29°C° 0 mm 5 mps 754 mmHg 49%
    13:00 +29°C° 0 mm 5 mps 754 mmHg 48%
    14:00 +28°C° 0 mm 5 mps 754 mmHg 47%
    15:00 +28°C° 0 mm 5 mps 754 mmHg 45%
    16:00 +27°C° 0 mm 5 mps 754 mmHg 49%
    17:00 +26°C° 0 mm 5 mps 754 mmHg 53%
    18:00 +25°C° 0 mm 5 mps 754 mmHg 57%
    19:00 +23°C° 0 mm 5 mps 755 mmHg 62%
    20:00 +22°C° 0 mm 4 mps 756 mmHg 67%
    21:00 +21°C° 0 mm 4 mps 757 mmHg 71%
    22:00 +21°C° 0 mm 4 mps 757 mmHg 70%
    23:00 +20°C° 0 mm 3 mps 757 mmHg 68%

    27 Febrero, Jueves

    Tiempo Temperatura Precipitaciones Viento Presión Humedad
    00:00 +20°C° 0 mm 3 mps 757 mmHg 67%
    01:00 +20°C° 0 mm 2 mps 757 mmHg 66%
    02:00 +20°C° 0 mm 2 mps 757 mmHg 65%
    03:00 +20°C° 0 mm 2 mps 756 mmHg 63%
    04:00 +19°C° 0 mm 2 mps 757 mmHg 66%
    05:00 +18°C° 0 mm 2 mps 757 mmHg 69%
    06:00 +18°C° 0 mm 2 mps 757 mmHg 72%
    07:00 +19°C° 0 mm 2 mps 757 mmHg 66%
    08:00 +20°C° 0 mm 2 mps 758 mmHg 61%
    09:00 +21°C° 0 mm 2 mps 758 mmHg 56%
    10:00 +24°C° 0 mm 2 mps 758 mmHg 51%
    11:00 +25°C° 0 mm 2 mps 758 mmHg 46%
    12:00 +26°C° 0 mm 2 mps 757 mmHg 41%
    13:00 +26°C° 0 mm 3 mps 757 mmHg 41%
    14:00 +26°C° 0 mm 3 mps 757 mmHg 41%
    15:00 +27°C° 0 mm 3 mps 756 mmHg 41%
    16:00 +26°C° 0 mm 4 mps 756 mmHg 44%
    17:00 +25°C° 0 mm 4 mps 756 mmHg 47%
    18:00 +23°C° 0 mm 4 mps 756 mmHg 50%
    19:00 +22°C° 0 mm 4 mps 756 mmHg 55%
    20:00 +21°C° 0 mm 3 mps 757 mmHg 60%
    21:00 +20°C° 0 mm 3 mps 757 mmHg 65%
    22:00 +20°C° 0 mm 3 mps 758 mmHg 67%
    23:00 +19°C° 0 mm 2 mps 758 mmHg 70%
    Mostrar más